SCP
2 3 4 4 3 2 2 2 2 2 2 2 3 3 3 2 2 2 1 1 1 1 1 1 1 1 1 1 1 1 1 1 1 1 1 1 1 1 1 1 1 1 1
2 2 3 3 3 2 2 2 2 2 2 2 2 3 3 2 2 2 2 2 2 2 1 1 1 1 1 1 1 1 1 1 1 1 1 1 1 1 1 1 1 1 1
1 2 3 3 3 2 2 2 2 2 2 2 2 3 3 2 2 2 2 2 2 2 1 1 1 1 1 1 1 1 1 1 1 1 1 1 1 1 1 1 1 1 1
1 2 3 3 3 2 2 2 2 2 2 2 2 2 3 3 2 2 2 2 2 2 2 1 1 1 1 1 1 1 1 1 1 1 1 1 1 1 1 1 1 1 1
2 3 4 4 3 3 2 2 2 2 2 2 2 2 2 3 3 3 2 2 2 2 2 2 1 1 1 1 1 1 1 1 1 1 1 1 1 2 2 1 1 1 1
2 3 5 4 4 3 2 2 2 2 2 2 2 2 2 2 2 3 2 2 2 2 2 2 2 2 1 1 1 1 1 1 1 1 1 1 1 2 2 2 2 1 1
2 3 4 4 4 3 2 2 2 2 2 2 2 2 2 2 2 2 2 2 2 2 2 2 2 2 2 2 1 1 1 1 1 1 1 1 2 2 2 2 2 2 2
2 3 4 4 4 3 3 3 3 3 2 2 3 2 2 2 2 2 2 2 2 2 2 2 2 2 2 2 2 1 1 1 1 1 1 1 2 2 2 2 2 2 2
2 3 3 3 3 3 3 3 3 3 3 3 3 3 2 2 2 2 1 1 1 2 2 2 2 2 2 2 2 2 1 1 1 1 1 1 2 2 2 2 2 2 2
2 3 3 3 3 2 2 2 3 3 3 3 3 2 2 2 2 2 2 2 1 1 2 2 2 2 2 2 2 1 1 1 1 1 1 1 2 2 2 2 2 2 2
3 3 4 3 3 2 2 2 2 3 3 3 2 2 2 2 2 2 2 2 2 2 2 2 1 2 2 2 2 1 1 1 1 1 2 2 2 2 2 2 2 2 2
3 4 4 4 3 2 2 2 2 2 3 3 3 3 2 2 2 2 3 4 3 2 2 2 2 2 2 2 2 2 2 2 2 2 2 2 3 2 2 2 2 2 2
3 4 4 4 3 3 2 3 3 3 3 3 3 3 3 3 3 3 3 4 4 3 2 2 2 2 2 3 2 2 2 2 2 2 2 2 2 2 2 2 2 2 2
4 3 3 4 4 3 3 3 3 3 3 3 3 3 3 4 3 3 3 3 4 3 3 3 3 3 3 3 2 2 2 2 2 2 2 3 2 2 1 1 2 2 2
4 3 3 4 4 4 4 4 4 4 4 4 3 3 4 4 4 3 3 3 3 3 3 3 3 3 3 2 2 2 2 2 2 3 3 2 2 2 1 1 1 2 2
3 3 3 4 5 5 5 5 4 4 5 5 4 4 4 4 4 4 3 3 3 3 3 3 3 3 2 2 2 2 2 2 2 3 2 2 2 2 1 1 1 2 2
3 3 4 4 5 5 5 6 5 5 5 5 5 4 4 4 5 4 4 3 3 2 3 3 3 2 2 2 1 1 2 2 2 2 2 2 2 2 2 1 2 2 2
2 3 3 4 4 4 4 5 6 6 6 5 5 4 4 4 5 5 4 4 3 3 3 3 3 3 2 2 2 2 2 2 2 2 2 2 2 2 2 2 2 2 2
2 2 2 3 3 3 4 5 5 5 5 5 4 4 3 4 5 5 5 4 3 3 3 3 3 3 3 3 3 2 2 2 2 2 2 2 2 2 2 2 2 2 2
2 2 2 2 3 3 3 4 4 5 4 4 4 3 3 3 4 5 4 4 4 3 3 4 4 4 4 4 4 3 2 2 2 2 2 2 2 2 2 2 2 2 2
3 3 3 2 2 3 3 3 3 4 3 3 3 3 2 2 3 4 4 3 4 3 4 4 4 4 4 4 4 3 3 2 2 2 3 2 2 2 2 2 2 2 2
4 4 3 2 2 2 2 2 2 3 3 3 3 3 2 2 2 3 3 3 3 4 4 4 5 4 4 4 4 3 3 3 3 3 3 3 3 2 2 2 2 2 2
4 4 3 2 2 2 2 2 2 2 3 3 3 3 2 2 2 2 2 3 3 4 4 4 4 4 4 4 4 4 3 4 4 4 4 3 3 3 3 2 2 2 2
4 4 3 2 2 2 1 2 2 2 3 3 3 2 2 2 2 2 2 3 4 4 4 4 4 5 5 4 4 4 4 4 4 4 4 3 3 3 3 3 2 2 2
4 4 3 2 2 1 1 2 2 2 2 2 2 2 3 2 2 2 2 3 4 4 4 4 4 5 5 4 3 3 3 3 4 3 3 2 2 2 2 3 3 2 2
4 4 3 2 2 1 1 1 2 2 2 2 2 3 3 3 2 2 2 3 4 4 4 4 4 4 5 4 3 3 3 3 3 3 3 2 2 2 2 3 3 2 2
Wind_Speed
7 10 13 9 8 8 9 9 9 9 9 9 10 10 11 11 11 10 10 10 9 9 10 9 9 8 8 7 7 6 6 5 5 5 5 5 6 6 6 6 7 7 9
8 11 13 9 9 9 9 9 9 9 9 9 9 10 10 10 10 10 10 9 9 9 9 9 8 8 8 7 7 7 6 6 6 6 6 7 7 7 6 6 6 2 9
9 11 12 9 8 9 9 9 9 9 9 9 9 9 9 9 9 9 9 8 8 8 8 8 7 7 7 7 7 6 6 6 6 6 8 8 8 8 7 6 5 4 6
9 10 10 10 9 9 9 9 9 9 9 8 8 8 8 8 8 8 8 8 7 7 7 7 7 7 7 7 7 7 7 7 6 8 9 7 6 9 7 7 6 6 6
9 10 11 10 9 9 9 9 8 9 9 8 8 8 7 7 7 7 7 7 7 6 6 7 7 7 7 7 7 7 7 7 7 11 8 6 4 7 7 7 7 7 7
9 10 12 9 8 8 9 8 8 8 8 7 7 7 6 6 6 6 6 6 6 6 6 6 6 6 6 6 7 7 7 7 10 10 7 6 5 7 7 8 8 8 8
8 8 11 10 8 8 8 7 7 7 7 6 6 6 6 5 5 5 5 6 6 6 6 5 5 5 5 5 6 6 7 8 11 7 6 6 4 5 7 8 9 8 8
8 8 10 11 9 8 7 7 6 5 5 5 5 5 5 5 5 5 5 5 5 5 5 5 5 5 5 5 5 6 7 9 10 8 7 6 3 5 7 9 9 8 8
7 7 7 8 9 9 8 7 5 4 4 4 4 5 5 4 5 5 5 5 5 4 4 4 4 4 5 4 4 5 7 9 11 6 7 5 5 6 8 9 9 9 9
6 6 6 6 6 6 6 8 6 5 4 4 4 4 5 6 6 6 6 5 5 5 4 4 4 4 5 5 5 6 7 10 11 8 5 4 5 6 8 9 10 10 9
6 5 4 4 4 4 4 5 6 7 6 6 6 6 6 5 5 6 4 4 5 5 4 4 4 5 6 7 7 8 9 7 8 6 4 2 4 6 8 9 9 10 10
5 4 3 3 3 3 2 3 3 3 4 4 3 4 4 3 3 3 5 5 5 6 6 6 6 7 8 6 7 10 6 7 6 5 3 3 4 6 8 8 8 10 10
3 3 2 2 1 1 1 1 1 1 2 3 3 3 3 3 3 3 2 4 5 7 6 6 7 5 5 3 4 5 5 5 4 4 3 4 4 6 8 8 8 9 10
2 2 1 1 1 0 0 1 1 1 1 2 2 3 2 2 2 2 2 2 3 3 3 4 3 4 4 5 5 5 6 5 4 3 3 5 5 7 8 8 8 8 9
1 1 1 0 0 1 1 1 1 2 2 1 2 2 3 2 2 2 2 2 3 2 3 3 3 3 4 5 5 5 6 6 5 5 2 5 6 7 8 8 9 9 8
1 0 0 1 1 1 1 2 2 2 2 2 2 2 3 2 2 2 3 2 2 2 2 3 3 3 4 3 5 5 6 5 5 6 4 4 7 7 7 8 8 9 8
1 1 1 1 1 1 2 2 1 2 2 2 2 2 3 3 2 3 2 2 2 2 3 3 3 3 4 4 5 5 5 5 4 5 5 4 4 7 8 7 7 8 8
1 1 1 1 0 1 1 1 2 2 2 2 2 2 2 2 3 3 2 2 2 2 2 3 3 3 3 4 4 3 3 3 5 5 5 5 4 4 6 7 8 8 9
1 1 1 0 1 1 1 1 1 1 2 2 1 1 1 2 3 3 3 2 3 3 3 3 2 3 3 3 3 3 3 3 4 5 5 5 4 5 4 5 7 8 8
1 1 1 1 0 1 0 1 1 1 1 2 2 1 2 3 3 3 3 3 4 3 3 2 2 2 3 3 4 3 3 4 4 4 5 4 4 5 5 4 5 6 8
1 1 0 1 0 1 1 1 1 1 1 2 2 1 2 3 3 3 3 2 3 3 3 3 3 3 3 2 3 3 4 5 4 4 4 4 4 4 4 4 4 4 4
1 0 1 0 1 1 1 2 2 2 2 2 2 2 3 3 3 4 3 3 3 3 4 4 3 3 2 2 3 3 3 3 4 3 4 4 4 4 5 5 4 5 5
0 0 1 1 2 2 2 1 1 2 3 2 2 2 2 3 4 4 4 4 4 4 3 4 4 4 4 3 3 3 3 2 2 2 3 3 4 4 4 4 5 5 6
1 0 0 1 1 1 2 2 2 2 2 2 3 2 2 3 4 4 4 4 4 4 3 4 3 4 5 4 2 3 3 4 3 3 3 3 4 4 4 4 4 4 5
1 0 0 1 1 1 2 2 3 3 2 2 3 2 3 2 3 3 3 3 3 3 3 3 3 4 4 4 4 3 3 3 5 5 4 3 3 3 3 3 3 4 4
0 0 0 1 1 1 2 2 3 3 3 3 3 3 3 2 2 2 3 3 3 3 3 3 3 3 3 4 4 4 4 3 3 4 5 4 4 3 3 3 3 3 3
Wind_Direction
145 133 134 143 141 142 142 144 144 144 145 147 149 151 155 157 157 160 161 160 161 161 161 162 164 165 167 167 168 171 175 173 175 175 177 179 182 183 182 183 198 186 133
137 134 137 142 142 144 145 146 145 144 145 148 151 153 156 158 160 161 165 167 168 168 167 170 173 175 174 174 175 179 185 185 184 188 192 194 192 194 195 197 231 128 139
138 135 141 137 143 145 145 143 143 141 143 146 150 153 156 158 160 164 166 170 174 174 175 176 181 186 181 181 184 188 193 196 195 198 215 219 186 183 198 205 201 175 166
140 138 136 133 139 141 141 140 140 140 141 144 149 152 154 158 161 166 169 172 175 178 180 181 188 191 190 191 194 195 199 201 206 216 223 225 209 165 192 205 201 195 192
141 136 126 134 133 135 137 138 138 138 139 141 146 152 154 159 164 166 170 174 175 181 184 186 190 196 199 200 201 202 207 210 214 232 236 231 229 153 188 206 209 209 204
140 134 127 135 131 129 133 137 140 140 141 142 146 152 157 160 165 171 177 183 183 186 188 192 195 200 204 208 211 212 217 222 227 231 233 238 227 162 190 210 217 218 210
136 132 129 132 130 131 133 136 139 141 143 147 152 157 160 163 170 175 180 187 189 192 194 196 200 202 208 214 217 217 222 230 246 244 237 234 225 156 201 218 223 222 217
134 133 132 138 136 135 138 137 139 142 144 147 151 155 160 165 172 177 185 186 188 194 199 202 208 210 209 210 214 218 223 238 241 239 236 235 163 172 216 227 230 227 223
132 131 136 144 144 146 145 137 133 132 137 143 149 154 160 172 180 182 187 191 194 199 199 201 208 213 212 213 219 223 226 236 251 240 239 233 160 192 222 231 234 229 226
129 128 136 142 142 154 149 144 147 150 147 151 158 166 178 183 186 189 197 190 195 196 200 207 220 220 216 219 224 228 233 238 244 240 236 208 169 207 227 232 235 232 228
133 133 140 145 147 156 156 149 168 170 166 182 179 177 203 204 198 193 191 175 194 198 208 216 232 230 224 213 223 231 236 242 242 245 239 185 188 220 233 235 237 235 232
141 139 139 140 152 162 155 155 182 187 172 201 195 202 216 209 218 220 165 187 204 211 214 217 232 229 236 222 210 224 236 240 250 242 224 168 210 233 239 238 237 236 235
141 132 126 129 145 166 149 160 175 195 180 205 199 215 225 224 215 220 204 194 207 215 220 209 220 227 230 233 242 235 246 248 239 244 216 172 218 242 245 241 237 238 238
145 137 129 124 114 150 60 177 203 209 200 221 192 228 229 224 227 229 232 238 232 227 229 232 230 234 240 236 239 242 243 245 244 240 207 189 223 244 251 249 242 243 241
138 140 129 150 162 219 234 250 225 225 227 216 228 215 235 232 231 222 228 240 248 239 226 233 238 235 239 236 241 241 247 249 254 258 217 190 219 243 254 254 247 243 244
125 90 48 247 212 224 227 244 247 238 226 239 233 232 241 244 239 234 225 233 246 252 254 251 244 236 239 244 249 249 251 249 247 252 249 207 200 220 243 253 253 249 245
142 153 222 220 184 227 244 256 254 247 244 248 240 235 235 240 230 239 241 238 247 255 244 244 245 243 237 238 246 251 248 249 250 248 245 245 219 203 215 235 250 253 250
137 152 228 250 159 228 251 269 278 274 263 255 255 240 233 241 240 242 242 243 250 251 250 246 251 253 252 256 256 259 254 241 243 246 243 237 244 239 208 210 232 247 251
135 174 205 279 251 251 263 271 278 278 276 264 262 263 249 240 235 242 246 251 247 246 250 256 258 269 262 267 263 253 259 258 249 247 247 239 235 243 242 197 211 227 238
128 166 185 209 310 265 243 251 256 243 258 262 260 250 251 244 240 251 239 237 251 248 247 243 257 260 271 272 276 274 259 252 247 248 248 236 231 237 239 238 227 213 217
129 118 205 295 305 270 253 255 263 254 255 252 250 239 245 255 252 255 260 238 249 249 254 249 253 248 254 265 270 264 249 235 237 237 240 248 242 240 240 237 250 262 231
132 101 264 255 286 274 269 273 277 283 270 263 262 235 244 249 252 249 253 255 250 252 242 243 247 264 266 257 267 271 260 226 220 234 239 235 240 239 236 233 239 246 260
42 323 301 306 281 285 287 271 269 248 250 254 259 242 242 249 250 258 253 260 262 259 246 247 247 250 261 260 262 277 280 276 290 220 241 245 244 245 245 239 237 244 251
289 338 15 271 271 272 257 266 273 276 289 300 280 268 260 247 250 250 250 250 256 258 257 254 245 254 255 260 249 250 278 311 286 277 244 242 246 249 253 252 248 246 252
223 236 195 266 274 271 263 255 257 265 285 299 298 286 272 255 252 252 247 247 250 258 260 266 273 262 257 263 263 253 247 247 258 269 278 277 260 257 255 254 255 250 248
251 241 345 303 310 286 260 265 256 262 276 283 281 283 276 272 263 263 260 252 249 255 255 259 263 258 260 264 269 265 260 260 259 266 273 274 274 269 263 267 259 257 253